Regional Weather Roundup
Issued by NWS

Home | Current Version | Previous Version | Graphics & Text | Print | Product List | Glossary On
Versions: 1 2 3 4 5 6 7 8 9 10 11 12 13 14 15 16 17 18 19 20 21 22 23 24 25 26 27 28 29 30 31 32 33 34 35 36 37 38 39 40 41 42 43 44 45 46 47 48 49 50
000
ASUS45 KBOI 081410
RWRID

IDAHO REGIONAL WEATHER ROUNDUP
NATIONAL WEATHER SERVICE BOISE ID
700 AM MST MON FEB 08 2016

NOTE: "FAIR" INDICATES FEW OR NO CLOUDS BELOW 12000 FEET
WITH NO SIGNIFICANT WEATHER AND/OR OBSTRUCTIONS TO VISIBILITY

IDZ012-014-081500-
SOUTHWEST IDAHO


CITY           SKY/WX    TMP DP  RH WIND       PRES   REMARKS
BOISE          CLEAR     32  28  85 SE8       30.68R WCI  25
CALDWELL       NOT AVBL
MOUNTAIN HOME  CLEAR     27  27 100 E9        30.68S WCI  18
$$

IDZ016-017-081500-
SOUTHCENTRAL IDAHO


CITY           SKY/WX    TMP DP  RH WIND       PRES   REMARKS
BURLEY         CLEAR     26  24  92 NE6       30.64F WCI  19
JEROME         FOG       27  25  92 NE10      30.66S VSB 1/2 WCI  17
TWIN FALLS     PTCLDY    25  24  96 SE10      30.65S WCI  15
$$

IDZ019>023-081500-
SOUTHEAST IDAHO


CITY           SKY/WX    TMP DP  RH WIND       PRES   REMARKS
IDAHO FALLS    FOG       22  20  92 N8        30.71R VSB 1   WCI  12
POCATELLO      CLOUDY    24  23  96 NE6       30.69S FOG     WCI  17
REXBURG        CLOUDY    22  21  96 CALM      30.70R FOG
$$

IDZ006-010-011-018-031-032-081500-
CENTRAL IDAHO MOUNTAINS


CITY           SKY/WX    TMP DP  RH WIND       PRES   REMARKS
MCCALL         CLEAR     14  10  84 CALM      30.62S
HAILEY         PTCLDY    14  10  85 NW7       30.65R WCI   4
STANLEY          N/A      4  -1  80 CALM      30.70R
SALMON         CLOUDY    23  18  80 CALM      30.72R
CHALLIS        CLEAR      9   7  92 SE5       30.69R WCI   1
$$

IDZ002-004-006-007-026-081500-
NORTHERN IDAHO


CITY           SKY/WX    TMP DP  RH WIND       PRES   REMARKS
LEWISTON       CLEAR     35  30  82 CALM      30.63R
LOWELL           N/A     34  31  88 CALM      30.72S
COEUR D`ALENE  MOCLDY    34  27  75 NE9       30.59F WCI  26
MULLAN PASS    CLOUDY    32  24  72 S6        30.56S WCI  26
$$



USA.gov is the U.S. government's official web portal to all federal, state and local government web resources and services.